When you browse on this site, cookies collect data to enhance your experience and personalize the content and advertising you see.
Visit our Privacy Policy to learn more. By continuing to use the site, you agree to this use of cookies and data.
  • En España
  • Lista de países
  • Para 7 días
  • Temperatura del agua
  • Mapa Satelital
  • El tiempo en el mapa
  • Informadores
  • user-avatar
    Iniciar sesión

    Tiempo cada hora Ties

    Hoy, 19 Diciembre, Miércoles

    Tiempo Temperatura Precipitaciones Viento Presión Humedad
    00:00 +23°C° 0 mm 5 mps 752 mmHg 40%
    01:00 +22°C° 0 mm 5 mps 752 mmHg 37%
    02:00 +22°C° 0 mm 5 mps 752 mmHg 35%
    03:00 +22°C° 0 mm 5 mps 752 mmHg 31%
    04:00 +22°C° 0 mm 5 mps 751 mmHg 27%
    05:00 +21°C° 0 mm 5 mps 751 mmHg 23%
    06:00 +22°C° 0 mm 5 mps 752 mmHg 21%
    07:00 +23°C° 0 mm 6 mps 752 mmHg 19%
    08:00 +24°C° 0 mm 6 mps 752 mmHg 16%
    09:00 +28°C° 0 mm 6 mps 752 mmHg 14%
    10:00 +32°C° 0 mm 6 mps 752 mmHg 12%
    11:00 +34°C° 0 mm 6 mps 752 mmHg 10%
    12:00 +35°C° 0 mm 6 mps 751 mmHg 11%
    13:00 +36°C° 0 mm 6 mps 751 mmHg 11%
    14:00 +37°C° 0 mm 5 mps 751 mmHg 11%
    15:00 +35°C° 0 mm 6 mps 750 mmHg 14%
    16:00 +34°C° 0 mm 6 mps 750 mmHg 18%
    17:00 +33°C° 0 mm 6 mps 750 mmHg 21%
    18:00 +30°C° 0 mm 6 mps 750 mmHg 27%
    19:00 +28°C° 0 mm 5 mps 750 mmHg 33%
    20:00 +26°C° 0 mm 5 mps 751 mmHg 39%
    21:00 +26°C° 0 mm 5 mps 751 mmHg 40%
    22:00 +24°C° 0 mm 6 mps 751 mmHg 40%
    23:00 +24°C° 0 mm 6 mps 751 mmHg 41%

    Mañana, 20 Diciembre, Jueves

    Tiempo Temperatura Precipitaciones Viento Presión Humedad
    00:00 +25°C° 0 mm 5 mps 751 mmHg 40%
    01:00 +23°C° 0 mm 5 mps 751 mmHg 38%
    02:00 +23°C° 0 mm 5 mps 751 mmHg 36%
    03:00 +23°C° 0 mm 5 mps 751 mmHg 31%
    04:00 +22°C° 0 mm 5 mps 751 mmHg 27%
    05:00 +22°C° 0 mm 5 mps 750 mmHg 22%
    06:00 +23°C° 0 mm 5 mps 751 mmHg 20%
    07:00 +24°C° 0 mm 6 mps 751 mmHg 17%
    08:00 +26°C° 0 mm 6 mps 752 mmHg 14%
    09:00 +29°C° 0 mm 6 mps 752 mmHg 12%
    10:00 +33°C° 0 mm 6 mps 752 mmHg 10%
    11:00 +36°C° 0 mm 6 mps 752 mmHg 8%
    12:00 +37°C° 0 mm 5 mps 751 mmHg 8%
    13:00 +39°C° 0 mm 5 mps 751 mmHg 8%
    14:00 +38°C° 0 mm 4 mps 750 mmHg 8%
    15:00 +37°C° 0 mm 4 mps 750 mmHg 11%
    16:00 +36°C° 0 mm 4 mps 750 mmHg 13%
    17:00 +35°C° 0 mm 4 mps 749 mmHg 15%
    18:00 +33°C° 0 mm 5 mps 750 mmHg 20%
    19:00 +30°C° 0 mm 5 mps 750 mmHg 25%
    20:00 +28°C° 0 mm 5 mps 751 mmHg 30%
    21:00 +27°C° 0 mm 5 mps 751 mmHg 31%
    22:00 +27°C° 0 mm 5 mps 751 mmHg 32%
    23:00 +26°C° 0 mm 5 mps 751 mmHg 32%

    Pasado mañana, 21 Diciembre, Viernes

    Tiempo Temperatura Precipitaciones Viento Presión Humedad
    00:00 +26°C° 0 mm 5 mps 751 mmHg 27%
    01:00 +26°C° 0 mm 5 mps 750 mmHg 21%
    02:00 +26°C° 0 mm 6 mps 750 mmHg 15%
    03:00 +24°C° 0 mm 6 mps 750 mmHg 15%
    04:00 +24°C° 0 mm 6 mps 750 mmHg 15%
    05:00 +23°C° 0 mm 6 mps 750 mmHg 15%
    06:00 +24°C° 0 mm 6 mps 750 mmHg 14%
    07:00 +26°C° 0 mm 7 mps 751 mmHg 13%
    08:00 +27°C° 0 mm 7 mps 751 mmHg 12%
    09:00 +29°C° 0 mm 7 mps 751 mmHg 11%
    10:00 +33°C° 0 mm 7 mps 751 mmHg 9%
    11:00 +36°C° 0 mm 7 mps 751 mmHg 8%
    12:00 +38°C° 0 mm 6 mps 751 mmHg 8%
    13:00 +39°C° 0 mm 5 mps 750 mmHg 7%
    14:00 +41°C° 0 mm 5 mps 749 mmHg 7%
    15:00 +40°C° 0 mm 5 mps 749 mmHg 9%
    16:00 +37°C° 0 mm 4 mps 749 mmHg 10%
    17:00 +36°C° 0 mm 4 mps 749 mmHg 11%
    18:00 +34°C° 0 mm 5 mps 749 mmHg 15%
    19:00 +32°C° 0 mm 5 mps 750 mmHg 18%
    20:00 +29°C° 0 mm 5 mps 750 mmHg 22%
    21:00 +28°C° 0 mm 5 mps 750 mmHg 19%
    22:00 +28°C° 0 mm 5 mps 750 mmHg 16%
    23:00 +27°C° 0 mm 5 mps 751 mmHg 14%

    22 Diciembre, Sábado

    Tiempo Temperatura Precipitaciones Viento Presión Humedad
    00:00 +27°C° 0 mm 5 mps 750 mmHg 14%
    01:00 +26°C° 0 mm 5 mps 750 mmHg 14%
    02:00 +26°C° 0 mm 5 mps 749 mmHg 15%
    03:00 +25°C° 0 mm 5 mps 749 mmHg 15%
    04:00 +25°C° 0 mm 4 mps 749 mmHg 15%
    05:00 +23°C° 0 mm 4 mps 749 mmHg 16%
    06:00 +25°C° 0 mm 5 mps 750 mmHg 15%
    07:00 +26°C° 0 mm 5 mps 750 mmHg 14%
    08:00 +26°C° 0 mm 6 mps 751 mmHg 13%
    09:00 +29°C° 0 mm 6 mps 751 mmHg 11%
    10:00 +33°C° 0 mm 6 mps 751 mmHg 9%
    11:00 +36°C° 0 mm 6 mps 751 mmHg 8%
    12:00 +37°C° 0 mm 5 mps 750 mmHg 7%
    13:00 +39°C° 0 mm 5 mps 749 mmHg 7%
    14:00 +41°C° 0 mm 4 mps 748 mmHg 7%
    15:00 +40°C° 0 mm 4 mps 748 mmHg 8%
    16:00 +37°C° 0 mm 4 mps 748 mmHg 10%
    17:00 +36°C° 0 mm 3 mps 748 mmHg 11%
    18:00 +34°C° 0 mm 4 mps 749 mmHg 15%
    19:00 +32°C° 0 mm 4 mps 749 mmHg 18%
    20:00 +28°C° 0 mm 4 mps 750 mmHg 22%
    21:00 +28°C° 0 mm 4 mps 750 mmHg 20%
    22:00 +27°C° 0 mm 4 mps 750 mmHg 17%
    23:00 +27°C° 0 mm 4 mps 750 mmHg 15%

    23 Diciembre, Domingo

    Tiempo Temperatura Precipitaciones Viento Presión Humedad
    00:00 +26°C° 0 mm 4 mps 749 mmHg 15%
    01:00 +26°C° 0 mm 4 mps 749 mmHg 15%
    02:00 +25°C° 0 mm 4 mps 749 mmHg 15%
    03:00 +25°C° 0 mm 4 mps 749 mmHg 15%
    04:00 +23°C° 0 mm 4 mps 749 mmHg 16%
    05:00 +22°C° 0 mm 4 mps 749 mmHg 16%
    06:00 +23°C° 0 mm 5 mps 749 mmHg 15%
    07:00 +24°C° 0 mm 6 mps 750 mmHg 14%
    08:00 +26°C° 0 mm 7 mps 750 mmHg 13%
    09:00 +29°C° 0 mm 7 mps 750 mmHg 12%
    10:00 +33°C° 0 mm 7 mps 750 mmHg 10%
    11:00 +35°C° 0 mm 7 mps 750 mmHg 8%
    12:00 +38°C° 0 mm 6 mps 750 mmHg 8%
    13:00 +39°C° 0 mm 5 mps 749 mmHg 8%
    14:00 +40°C° 0 mm 4 mps 748 mmHg 7%
    15:00 +38°C° 0 mm 4 mps 748 mmHg 8%
    16:00 +37°C° 0 mm 4 mps 748 mmHg 10%
    17:00 +36°C° 0 mm 3 mps 748 mmHg 11%
    18:00 +34°C° 0 mm 4 mps 748 mmHg 14%
    19:00 +32°C° 0 mm 4 mps 749 mmHg 17%
    20:00 +28°C° 0 mm 4 mps 749 mmHg 20%
    21:00 +28°C° 0 mm 4 mps 750 mmHg 19%
    22:00 +27°C° 0 mm 4 mps 750 mmHg 19%
    23:00 +26°C° 0 mm 4 mps 750 mmHg 19%

    24 Diciembre, Lunes

    Tiempo Temperatura Precipitaciones Viento Presión Humedad
    00:00 +26°C° 0 mm 4 mps 750 mmHg 18%
    01:00 +25°C° 0 mm 4 mps 750 mmHg 16%
    02:00 +25°C° 0 mm 4 mps 749 mmHg 15%
    03:00 +25°C° 0 mm 4 mps 749 mmHg 15%
    04:00 +23°C° 0 mm 4 mps 749 mmHg 15%
    05:00 +23°C° 0 mm 4 mps 749 mmHg 16%
    06:00 +25°C° 0 mm 5 mps 750 mmHg 15%
    07:00 +25°C° 0 mm 5 mps 750 mmHg 14%
    08:00 +26°C° 0 mm 5 mps 751 mmHg 13%
    09:00 +29°C° 0 mm 5 mps 751 mmHg 11%
    10:00 +33°C° 0 mm 5 mps 751 mmHg 10%
    11:00 +35°C° 0 mm 5 mps 751 mmHg 8%
    12:00 +36°C° 0 mm 4 mps 750 mmHg 8%
    13:00 +37°C° 0 mm 4 mps 750 mmHg 9%
    14:00 +38°C° 0 mm 4 mps 749 mmHg 9%
    15:00 +37°C° 0 mm 4 mps 749 mmHg 10%
    16:00 +36°C° 0 mm 4 mps 749 mmHg 12%
    17:00 +35°C° 0 mm 5 mps 749 mmHg 13%
    18:00 +32°C° 0 mm 5 mps 749 mmHg 18%
    19:00 +29°C° 0 mm 5 mps 750 mmHg 22%
    20:00 +27°C° 0 mm 5 mps 750 mmHg 27%
    21:00 +26°C° 0 mm 5 mps 750 mmHg 28%
    22:00 +26°C° 0 mm 5 mps 750 mmHg 30%
    23:00 +25°C° 0 mm 5 mps 751 mmHg 32%
    Mostrar más